﻿_id,日時,10分間移動積算雨量(mm),1時間移動積算雨量(mm),日雨量(mm),累計雨量(mm)
1,2024-05-13T00:00:00,1,6.5,19,19
2,2024-05-13T00:01:00,1,6.5,0,19
3,2024-05-13T00:02:00,1.5,7,0.5,19.5
4,2024-05-13T00:03:00,1,6.5,0.5,19.5
5,2024-05-13T00:04:00,1,6.5,0.5,19.5
6,2024-05-13T00:05:00,1,6.5,0.5,19.5
7,2024-05-13T00:06:00,1.5,7,1,20
8,2024-05-13T00:07:00,1.5,7,1,20
9,2024-05-13T00:08:00,1.5,7,1,20
10,2024-05-13T00:09:00,1.5,7.5,1.5,20.5
11,2024-05-13T00:10:00,1.5,7.5,1.5,20.5
12,2024-05-13T00:11:00,1.5,7.5,1.5,20.5
13,2024-05-13T00:12:00,1,7,1.5,20.5
14,2024-05-13T00:13:00,1.5,7.5,2,21
15,2024-05-13T00:14:00,1.5,7.5,2,21
16,2024-05-13T00:15:00,1.5,7.5,2,21
17,2024-05-13T00:16:00,1,7.5,2,21
18,2024-05-13T00:17:00,1,7,2,21
19,2024-05-13T00:18:00,1.5,7.5,2.5,21.5
20,2024-05-13T00:19:00,1,7.5,2.5,21.5
21,2024-05-13T00:20:00,1,7.5,2.5,21.5
22,2024-05-13T00:21:00,1,7,2.5,21.5
23,2024-05-13T00:22:00,1,7,2.5,21.5
24,2024-05-13T00:23:00,1,7.5,3,22
25,2024-05-13T00:24:00,1,7.5,3,22
26,2024-05-13T00:25:00,1,7.5,3,22
27,2024-05-13T00:26:00,1,7,3,22
28,2024-05-13T00:27:00,1.5,7.5,3.5,22.5
29,2024-05-13T00:28:00,1,7.5,3.5,22.5
30,2024-05-13T00:29:00,1,7,3.5,22.5
31,2024-05-13T00:30:00,1,7,3.5,22.5
32,2024-05-13T00:31:00,1,7,3.5,22.5
33,2024-05-13T00:32:00,,,,
34,2024-05-13T00:33:00,1,7,4,23
35,2024-05-13T00:34:00,1,7,4,23
36,2024-05-13T00:35:00,1,7,4,23
37,2024-05-13T00:36:00,1,7,4,23
38,2024-05-13T00:37:00,0.5,7,4,23
39,2024-05-13T00:38:00,0.5,6.5,4,23
40,2024-05-13T00:39:00,0.5,6.5,4,23
41,2024-05-13T00:40:00,0.5,6.5,4,23
42,2024-05-13T00:41:00,1,7,4.5,23.5
43,2024-05-13T00:42:00,1,6.5,4.5,23.5
44,2024-05-13T00:43:00,0.5,6.5,4.5,23.5
45,2024-05-13T00:44:00,0.5,6,4.5,23.5
46,2024-05-13T00:45:00,0.5,6,4.5,23.5
47,2024-05-13T00:46:00,0.5,6,4.5,23.5
48,2024-05-13T00:47:00,0.5,6,4.5,23.5
49,2024-05-13T00:48:00,0.5,6,4.5,23.5
50,2024-05-13T00:49:00,0.5,5.5,4.5,23.5
51,2024-05-13T00:50:00,1,6,5,24
52,2024-05-13T00:51:00,0.5,6,5,24
53,2024-05-13T00:52:00,0.5,6,5,24
54,2024-05-13T00:53:00,0.5,5.5,5,24
55,2024-05-13T00:54:00,0.5,5.5,5,24
56,2024-05-13T00:55:00,0.5,5.5,5,24
57,2024-05-13T00:56:00,0.5,5.5,5,24
58,2024-05-13T00:57:00,0.5,5.5,5,24
59,2024-05-13T00:58:00,1,6,5.5,24.5
60,2024-05-13T00:59:00,1,5.5,5.5,24.5
61,2024-05-13T01:00:00,0.5,5.5,5.5,24.5
62,2024-05-13T01:01:00,0.5,5.5,5.5,24.5
63,2024-05-13T01:02:00,0.5,5,5.5,24.5
64,2024-05-13T01:03:00,0.5,5,5.5,24.5
65,2024-05-13T01:04:00,1,5.5,6,25
66,2024-05-13T01:05:00,1,5.5,6,25
67,2024-05-13T01:06:00,1,5,6,25
68,2024-05-13T01:07:00,1,5,6,25
69,2024-05-13T01:08:00,1,5.5,6.5,25.5
70,2024-05-13T01:09:00,1,5,6.5,25.5
71,2024-05-13T01:10:00,1,5,6.5,25.5
72,2024-05-13T01:11:00,1,5,6.5,25.5
73,2024-05-13T01:12:00,1.5,5.5,7,26
74,2024-05-13T01:13:00,1.5,5,7,26
75,2024-05-13T01:14:00,1,5,7,26
76,2024-05-13T01:15:00,1,5,7,26
77,2024-05-13T01:16:00,1,5,7,26
78,2024-05-13T01:17:00,1.5,5.5,7.5,26.5
79,2024-05-13T01:18:00,1,5,7.5,26.5
80,2024-05-13T01:19:00,1,5,7.5,26.5
81,2024-05-13T01:20:00,1,5,7.5,26.5
82,2024-05-13T01:21:00,1,5,7.5,26.5
83,2024-05-13T01:22:00,0.5,5,7.5,26.5
84,2024-05-13T01:23:00,0.5,4.5,7.5,26.5
85,2024-05-13T01:24:00,1,5,8,27
86,2024-05-13T01:25:00,1,5,8,27
87,2024-05-13T01:26:00,1,5,8,27
88,2024-05-13T01:27:00,0.5,4.5,8,27
89,2024-05-13T01:28:00,0.5,4.5,8,27
90,2024-05-13T01:29:00,0.5,4.5,8,27
91,2024-05-13T01:30:00,0.5,4.5,8,27
92,2024-05-13T01:31:00,0.5,4.5,8,27
93,2024-05-13T01:32:00,0.5,4.5,8,27
94,2024-05-13T01:33:00,0.5,4,8,27
95,2024-05-13T01:34:00,0,4,8,27
96,2024-05-13T01:35:00,0.5,4.5,8.5,27.5
97,2024-05-13T01:36:00,0.5,4.5,8.5,27.5
98,2024-05-13T01:37:00,0.5,4.5,8.5,27.5
99,2024-05-13T01:38:00,0.5,4.5,8.5,27.5
100,2024-05-13T01:39:00,0.5,4.5,8.5,27.5
101,2024-05-13T01:40:00,0.5,4.5,8.5,27.5
102,2024-05-13T01:41:00,0.5,4,8.5,27.5
103,2024-05-13T01:42:00,0.5,4,8.5,27.5
104,2024-05-13T01:43:00,0.5,4,8.5,27.5
105,2024-05-13T01:44:00,0.5,4,8.5,27.5
106,2024-05-13T01:45:00,0,4,8.5,27.5
107,2024-05-13T01:46:00,0,4,8.5,27.5
108,2024-05-13T01:47:00,0,4,8.5,27.5
109,2024-05-13T01:48:00,0,4,8.5,27.5
110,2024-05-13T01:49:00,0,4,8.5,27.5
111,2024-05-13T01:50:00,0.5,4,9,28
112,2024-05-13T01:51:00,0.5,4,9,28
113,2024-05-13T01:52:00,0.5,4,9,28
114,2024-05-13T01:53:00,0.5,4,9,28
115,2024-05-13T01:54:00,0.5,4,9,28
116,2024-05-13T01:55:00,0.5,4,9,28
117,2024-05-13T01:56:00,0.5,4,9,28
118,2024-05-13T01:57:00,0.5,4,9,28
119,2024-05-13T01:58:00,0.5,3.5,9,28
120,2024-05-13T01:59:00,0.5,3.5,9,28
121,2024-05-13T02:00:00,0,3.5,9,28
122,2024-05-13T02:01:00,0,3.5,9,28
123,2024-05-13T02:02:00,0,3.5,9,28
124,2024-05-13T02:03:00,0,3.5,9,28
125,2024-05-13T02:04:00,0,3,9,28
126,2024-05-13T02:05:00,0.5,3.5,9.5,28.5
127,2024-05-13T02:06:00,0.5,3.5,9.5,28.5
128,2024-05-13T02:07:00,0.5,3.5,9.5,28.5
129,2024-05-13T02:08:00,0.5,3,9.5,28.5
130,2024-05-13T02:09:00,0.5,3,9.5,28.5
131,2024-05-13T02:10:00,0.5,3,9.5,28.5
132,2024-05-13T02:11:00,0.5,3,9.5,28.5
133,2024-05-13T02:12:00,1,3,10,29
134,2024-05-13T02:13:00,1,3,10,29
135,2024-05-13T02:14:00,1,3,10,29
136,2024-05-13T02:15:00,0.5,3,10,29
137,2024-05-13T02:16:00,0.5,3,10,29
138,2024-05-13T02:17:00,0.5,2.5,10,29
139,2024-05-13T02:18:00,0.5,2.5,10,29
140,2024-05-13T02:19:00,0.5,2.5,10,29
141,2024-05-13T02:20:00,0.5,2.5,10,29
142,2024-05-13T02:21:00,0.5,2.5,10,29
143,2024-05-13T02:22:00,0,2.5,10,29
144,2024-05-13T02:23:00,0.5,3,10.5,29.5
145,2024-05-13T02:24:00,0.5,2.5,10.5,29.5
146,2024-05-13T02:25:00,0.5,2.5,10.5,29.5
147,2024-05-13T02:26:00,0.5,2.5,10.5,29.5
148,2024-05-13T02:27:00,0.5,2.5,10.5,29.5
149,2024-05-13T02:28:00,0.5,2.5,10.5,29.5
150,2024-05-13T02:29:00,0.5,2.5,10.5,29.5
151,2024-05-13T02:30:00,0.5,2.5,10.5,29.5
152,2024-05-13T02:31:00,0.5,2.5,10.5,29.5
153,2024-05-13T02:32:00,0.5,2.5,10.5,29.5
154,2024-05-13T02:33:00,0,2.5,10.5,29.5
155,2024-05-13T02:34:00,0,2.5,10.5,29.5
156,2024-05-13T02:35:00,0.5,2.5,11,30
157,2024-05-13T02:36:00,0.5,2.5,11,30
158,2024-05-13T02:37:00,0.5,2.5,11,30
159,2024-05-13T02:38:00,0.5,2.5,11,30
160,2024-05-13T02:39:00,0.5,2.5,11,30
161,2024-05-13T02:40:00,0.5,2.5,11,30
162,2024-05-13T02:41:00,0.5,2.5,11,30
163,2024-05-13T02:42:00,0.5,2.5,11,30
164,2024-05-13T02:43:00,0.5,2.5,11,30
165,2024-05-13T02:44:00,0.5,2.5,11,30
166,2024-05-13T02:45:00,0,2.5,11,30
167,2024-05-13T02:46:00,0,2.5,11,30
168,2024-05-13T02:47:00,0,2.5,11,30
169,2024-05-13T02:48:00,0,2.5,11,30
170,2024-05-13T02:49:00,0,2.5,11,30
171,2024-05-13T02:50:00,0.5,2.5,11.5,30.5
172,2024-05-13T02:51:00,0.5,2.5,11.5,30.5
173,2024-05-13T02:52:00,0.5,2.5,11.5,30.5
174,2024-05-13T02:53:00,0.5,2.5,11.5,30.5
175,2024-05-13T02:54:00,0.5,2.5,11.5,30.5
176,2024-05-13T02:55:00,0.5,2.5,11.5,30.5
177,2024-05-13T02:56:00,0.5,2.5,11.5,30.5
178,2024-05-13T02:57:00,0.5,2.5,11.5,30.5
179,2024-05-13T02:58:00,0.5,2.5,11.5,30.5
180,2024-05-13T02:59:00,0.5,2.5,11.5,30.5
181,2024-05-13T03:00:00,0,2.5,11.5,30.5
182,2024-05-13T03:01:00,0,2.5,11.5,30.5
183,2024-05-13T03:02:00,0,2.5,11.5,30.5
184,2024-05-13T03:03:00,0.5,3,12,31
185,2024-05-13T03:04:00,0.5,3,12,31
186,2024-05-13T03:05:00,0.5,2.5,12,31
187,2024-05-13T03:06:00,0.5,2.5,12,31
188,2024-05-13T03:07:00,0.5,2.5,12,31
189,2024-05-13T03:08:00,0.5,2.5,12,31
190,2024-05-13T03:09:00,0.5,2.5,12,31
191,2024-05-13T03:10:00,0.5,2.5,12,31
192,2024-05-13T03:11:00,0.5,2.5,12,31
193,2024-05-13T03:12:00,0.5,2,12,31
194,2024-05-13T03:13:00,0,2,12,31
195,2024-05-13T03:14:00,0,2,12,31
196,2024-05-13T03:15:00,0,2,12,31
197,2024-05-13T03:16:00,0,2,12,31
198,2024-05-13T03:17:00,0,2,12,31
199,2024-05-13T03:18:00,0,2,12,31
200,2024-05-13T03:19:00,0,2,12,31
201,2024-05-13T03:20:00,0,2,12,31
202,2024-05-13T03:21:00,0,2,12,31
203,2024-05-13T03:22:00,0,2,12,31
204,2024-05-13T03:23:00,0,1.5,12,31
205,2024-05-13T03:24:00,0,1.5,12,31
206,2024-05-13T03:25:00,0,1.5,12,31
207,2024-05-13T03:26:00,0,1.5,12,31
208,2024-05-13T03:27:00,0,1.5,12,31
209,2024-05-13T03:28:00,0.5,2,12.5,31.5
210,2024-05-13T03:29:00,0.5,2,12.5,31.5
211,2024-05-13T03:30:00,0.5,2,12.5,31.5
212,2024-05-13T03:31:00,0.5,2,12.5,31.5
213,2024-05-13T03:32:00,0.5,2,12.5,31.5
214,2024-05-13T03:33:00,0.5,2,12.5,31.5
215,2024-05-13T03:34:00,0.5,2,12.5,31.5
216,2024-05-13T03:35:00,0.5,1.5,12.5,31.5
217,2024-05-13T03:36:00,0.5,1.5,12.5,31.5
218,2024-05-13T03:37:00,0.5,1.5,12.5,31.5
219,2024-05-13T03:38:00,0,1.5,12.5,31.5
220,2024-05-13T03:39:00,0,1.5,12.5,31.5
221,2024-05-13T03:40:00,0,1.5,12.5,31.5
222,2024-05-13T03:41:00,0,1.5,12.5,31.5
223,2024-05-13T03:42:00,0,1.5,12.5,31.5
224,2024-05-13T03:43:00,0,1.5,12.5,31.5
225,2024-05-13T03:44:00,0,1.5,12.5,31.5
226,2024-05-13T03:45:00,0,1.5,12.5,31.5
227,2024-05-13T03:46:00,0,1.5,12.5,31.5
228,2024-05-13T03:47:00,0,1.5,12.5,31.5
229,2024-05-13T03:48:00,0,1.5,12.5,31.5
230,2024-05-13T03:49:00,0,1.5,12.5,31.5
231,2024-05-13T03:50:00,0,1,12.5,31.5
232,2024-05-13T03:51:00,0,1,12.5,31.5
233,2024-05-13T03:52:00,0,1,12.5,31.5
234,2024-05-13T03:53:00,0,1,12.5,31.5
235,2024-05-13T03:54:00,0,1,12.5,31.5
236,2024-05-13T03:55:00,0,1,12.5,31.5
237,2024-05-13T03:56:00,0,1,12.5,31.5
238,2024-05-13T03:57:00,0,1,12.5,31.5
239,2024-05-13T03:58:00,0,1,12.5,31.5
240,2024-05-13T03:59:00,0,1,12.5,31.5
241,2024-05-13T04:00:00,0,1,12.5,31.5
242,2024-05-13T04:01:00,0,1,12.5,31.5
243,2024-05-13T04:02:00,0,1,12.5,31.5
244,2024-05-13T04:03:00,0,0.5,12.5,31.5
245,2024-05-13T04:04:00,0,0.5,12.5,31.5
246,2024-05-13T04:05:00,0,0.5,12.5,31.5
247,2024-05-13T04:06:00,0,0.5,12.5,31.5
248,2024-05-13T04:07:00,0,0.5,12.5,31.5
249,2024-05-13T04:08:00,0,0.5,12.5,31.5
250,2024-05-13T04:09:00,0,0.5,12.5,31.5
251,2024-05-13T04:10:00,0,0.5,12.5,31.5
252,2024-05-13T04:11:00,0,0.5,12.5,31.5
253,2024-05-13T04:12:00,0,0.5,12.5,31.5
254,2024-05-13T04:13:00,0,0.5,12.5,31.5
255,2024-05-13T04:14:00,0,0.5,12.5,31.5
256,2024-05-13T04:15:00,0,0.5,12.5,31.5
257,2024-05-13T04:16:00,0,0.5,12.5,31.5
258,2024-05-13T04:17:00,0,0.5,12.5,31.5
259,2024-05-13T04:18:00,0,0.5,12.5,31.5
260,2024-05-13T04:19:00,0,0.5,12.5,31.5
261,2024-05-13T04:20:00,0,0.5,12.5,31.5
262,2024-05-13T04:21:00,0,0.5,12.5,31.5
263,2024-05-13T04:22:00,0,0.5,12.5,31.5
264,2024-05-13T04:23:00,0,0.5,12.5,31.5
265,2024-05-13T04:24:00,0,0.5,12.5,31.5
266,2024-05-13T04:25:00,0,0.5,12.5,31.5
267,2024-05-13T04:26:00,0,0.5,12.5,31.5
268,2024-05-13T04:27:00,0,0.5,12.5,31.5
269,2024-05-13T04:28:00,0,0,12.5,31.5
270,2024-05-13T04:29:00,0.5,0.5,13,32
271,2024-05-13T04:30:00,0.5,0.5,13,32
272,2024-05-13T04:31:00,0.5,0.5,13,32
273,2024-05-13T04:32:00,0.5,0.5,13,32
274,2024-05-13T04:33:00,0.5,0.5,13,32
275,2024-05-13T04:34:00,0.5,0.5,13,32
276,2024-05-13T04:35:00,0.5,0.5,13,32
277,2024-05-13T04:36:00,0.5,0.5,13,32
278,2024-05-13T04:37:00,0.5,0.5,13,32
279,2024-05-13T04:38:00,0.5,0.5,13,32
280,2024-05-13T04:39:00,0,0.5,13,32
281,2024-05-13T04:40:00,0,0.5,13,32
282,2024-05-13T04:41:00,0,0.5,13,32
283,2024-05-13T04:42:00,0,0.5,13,32
284,2024-05-13T04:43:00,0,0.5,13,32
285,2024-05-13T04:44:00,0,0.5,13,32
286,2024-05-13T04:45:00,0,0.5,13,32
287,2024-05-13T04:46:00,0,0.5,13,32
288,2024-05-13T04:47:00,0,0.5,13,32
289,2024-05-13T04:48:00,0,0.5,13,32
290,2024-05-13T04:49:00,0,0.5,13,32
291,2024-05-13T04:50:00,0,0.5,13,32
292,2024-05-13T04:51:00,0,0.5,13,32
293,2024-05-13T04:52:00,0,0.5,13,32
294,2024-05-13T04:53:00,0,0.5,13,32
295,2024-05-13T04:54:00,0,0.5,13,32
296,2024-05-13T04:55:00,0,0.5,13,32
297,2024-05-13T04:56:00,0,0.5,13,32
298,2024-05-13T04:57:00,0,0.5,13,32
299,2024-05-13T04:58:00,0,0.5,13,32
300,2024-05-13T04:59:00,0,0.5,13,32
301,2024-05-13T05:00:00,0,0.5,13,32
302,2024-05-13T05:01:00,0,0.5,13,32
303,2024-05-13T05:02:00,0,0.5,13,32
304,2024-05-13T05:03:00,0,0.5,13,32
305,2024-05-13T05:04:00,0,0.5,13,32
306,2024-05-13T05:05:00,0,0.5,13,32
307,2024-05-13T05:06:00,0,0.5,13,32
308,2024-05-13T05:07:00,0,0.5,13,32
309,2024-05-13T05:08:00,0,0.5,13,32
310,2024-05-13T05:09:00,0,0.5,13,32
311,2024-05-13T05:10:00,0,0.5,13,32
312,2024-05-13T05:11:00,0,0.5,13,32
313,2024-05-13T05:12:00,0,0.5,13,32
314,2024-05-13T05:13:00,0,0.5,13,32
315,2024-05-13T05:14:00,0,0.5,13,32
316,2024-05-13T05:15:00,0,0.5,13,32
317,2024-05-13T05:16:00,0,0.5,13,32
318,2024-05-13T05:17:00,0,0.5,13,32
319,2024-05-13T05:18:00,0,0.5,13,32
320,2024-05-13T05:19:00,0,0.5,13,32
321,2024-05-13T05:20:00,0,0.5,13,32
322,2024-05-13T05:21:00,0,0.5,13,32
323,2024-05-13T05:22:00,0,0.5,13,32
324,2024-05-13T05:23:00,0,0.5,13,32
325,2024-05-13T05:24:00,0,0.5,13,32
326,2024-05-13T05:25:00,0,0.5,13,32
327,2024-05-13T05:26:00,0,0.5,13,32
328,2024-05-13T05:27:00,0,0.5,13,32
329,2024-05-13T05:28:00,0,0.5,13,32
330,2024-05-13T05:29:00,0,0,13,32
331,2024-05-13T05:30:00,0,0,13,32
332,2024-05-13T05:31:00,0,0,13,32
333,2024-05-13T05:32:00,0,0,13,32
334,2024-05-13T05:33:00,0,0,13,32
335,2024-05-13T05:34:00,0,0,13,32
336,2024-05-13T05:35:00,0,0,13,32
337,2024-05-13T05:36:00,0,0,13,32
338,2024-05-13T05:37:00,0,0,13,32
339,2024-05-13T05:38:00,0,0,13,32
340,2024-05-13T05:39:00,0,0,13,32
341,2024-05-13T05:40:00,0,0,13,32
342,2024-05-13T05:41:00,0,0,13,32
343,2024-05-13T05:42:00,0,0,13,32
344,2024-05-13T05:43:00,0,0,13,32
345,2024-05-13T05:44:00,0,0,13,32
346,2024-05-13T05:45:00,0,0,13,32
347,2024-05-13T05:46:00,0,0,13,32
348,2024-05-13T05:47:00,0,0,13,32
349,2024-05-13T05:48:00,0,0,13,32
350,2024-05-13T05:49:00,0,0,13,32
351,2024-05-13T05:50:00,0,0,13,32
352,2024-05-13T05:51:00,0,0,13,32
353,2024-05-13T05:52:00,0,0,13,32
354,2024-05-13T05:53:00,0,0,13,32
355,2024-05-13T05:54:00,0,0,13,32
356,2024-05-13T05:55:00,0,0,13,32
357,2024-05-13T05:56:00,0,0,13,32
358,2024-05-13T05:57:00,0,0,13,32
359,2024-05-13T05:58:00,0,0,13,32
360,2024-05-13T05:59:00,0,0,13,32
361,2024-05-13T06:00:00,0,0,13,32
362,2024-05-13T06:01:00,0,0,13,32
363,2024-05-13T06:02:00,0,0,13,32
364,2024-05-13T06:03:00,0,0,13,32
365,2024-05-13T06:04:00,0,0,13,32
366,2024-05-13T06:05:00,0,0,13,32
367,2024-05-13T06:06:00,0,0,13,32
368,2024-05-13T06:07:00,0,0,13,32
369,2024-05-13T06:08:00,0,0,13,32
370,2024-05-13T06:09:00,0,0,13,32
371,2024-05-13T06:10:00,0,0,13,32
372,2024-05-13T06:11:00,0,0,13,32
373,2024-05-13T06:12:00,0,0,13,32
374,2024-05-13T06:13:00,0,0,13,32
375,2024-05-13T06:14:00,0,0,13,32
376,2024-05-13T06:15:00,0,0,13,32
377,2024-05-13T06:16:00,0,0,13,32
378,2024-05-13T06:17:00,0,0,13,32
379,2024-05-13T06:18:00,0,0,13,32
380,2024-05-13T06:19:00,0,0,13,32
381,2024-05-13T06:20:00,0,0,13,32
382,2024-05-13T06:21:00,0,0,13,32
383,2024-05-13T06:22:00,0,0,13,32
384,2024-05-13T06:23:00,0,0,13,32
385,2024-05-13T06:24:00,0,0,13,32
386,2024-05-13T06:25:00,0,0,13,32
387,2024-05-13T06:26:00,0,0,13,32
388,2024-05-13T06:27:00,0,0,13,32
389,2024-05-13T06:28:00,0,0,13,32
390,2024-05-13T06:29:00,0,0,13,32
391,2024-05-13T06:30:00,0,0,13,32
392,2024-05-13T06:31:00,0,0,13,32
393,2024-05-13T06:32:00,0,0,13,32
394,2024-05-13T06:33:00,0,0,13,32
395,2024-05-13T06:34:00,0,0,13,32
396,2024-05-13T06:35:00,0,0,13,32
397,2024-05-13T06:36:00,0,0,13,32
398,2024-05-13T06:37:00,0,0,13,32
399,2024-05-13T06:38:00,0,0,13,32
400,2024-05-13T06:39:00,0,0,13,32
401,2024-05-13T06:40:00,0,0,13,32
402,2024-05-13T06:41:00,0,0,13,32
403,2024-05-13T06:42:00,0,0,13,32
404,2024-05-13T06:43:00,0,0,13,32
405,2024-05-13T06:44:00,0,0,13,32
406,2024-05-13T06:45:00,0,0,13,32
407,2024-05-13T06:46:00,0,0,13,32
408,2024-05-13T06:47:00,0,0,13,32
409,2024-05-13T06:48:00,0,0,13,32
410,2024-05-13T06:49:00,0,0,13,32
411,2024-05-13T06:50:00,0,0,13,32
412,2024-05-13T06:51:00,0,0,13,32
413,2024-05-13T06:52:00,0,0,13,32
414,2024-05-13T06:53:00,0,0,13,32
415,2024-05-13T06:54:00,0,0,13,32
416,2024-05-13T06:55:00,0,0,13,32
417,2024-05-13T06:56:00,0,0,13,32
418,2024-05-13T06:57:00,0,0,13,32
419,2024-05-13T06:58:00,0,0,13,32
420,2024-05-13T06:59:00,0,0,13,32
421,2024-05-13T07:00:00,0,0,13,32
422,2024-05-13T07:01:00,0,0,13,32
423,2024-05-13T07:02:00,0,0,13,32
424,2024-05-13T07:03:00,0,0,13,32
425,2024-05-13T07:04:00,0,0,13,32
426,2024-05-13T07:05:00,0,0,13,32
427,2024-05-13T07:06:00,0,0,13,32
428,2024-05-13T07:07:00,0,0,13,32
429,2024-05-13T07:08:00,0,0,13,32
430,2024-05-13T07:09:00,0,0,13,32
431,2024-05-13T07:10:00,0,0,13,32
432,2024-05-13T07:11:00,0,0,13,32
433,2024-05-13T07:12:00,0,0,13,32
434,2024-05-13T07:13:00,0,0,13,32
435,2024-05-13T07:14:00,0,0,13,32
436,2024-05-13T07:15:00,0,0,13,32
437,2024-05-13T07:16:00,0,0,13,32
438,2024-05-13T07:17:00,0,0,13,32
439,2024-05-13T07:18:00,0,0,13,32
440,2024-05-13T07:19:00,0,0,13,32
441,2024-05-13T07:20:00,0,0,13,32
442,2024-05-13T07:21:00,0,0,13,32
443,2024-05-13T07:22:00,0,0,13,32
444,2024-05-13T07:23:00,,,,
445,2024-05-13T07:24:00,0,0,13,32
446,2024-05-13T07:25:00,0,0,13,32
447,2024-05-13T07:26:00,0,0,13,32
448,2024-05-13T07:27:00,0,0,13,32
449,2024-05-13T07:28:00,0,0,13,32
450,2024-05-13T07:29:00,0,0,13,32
451,2024-05-13T07:30:00,0,0,13,32
452,2024-05-13T07:31:00,0,0,13,32
453,2024-05-13T07:32:00,0,0,13,32
454,2024-05-13T07:33:00,0,0,13,32
455,2024-05-13T07:34:00,0,0,13,32
456,2024-05-13T07:35:00,0,0,13,32
457,2024-05-13T07:36:00,0,0,13,32
458,2024-05-13T07:37:00,0,0,13,32
459,2024-05-13T07:38:00,0,0,13,32
460,2024-05-13T07:39:00,0,0,13,32
461,2024-05-13T07:40:00,0,0,13,32
462,2024-05-13T07:41:00,0,0,13,32
463,2024-05-13T07:42:00,0,0,13,32
464,2024-05-13T07:43:00,0,0,13,32
465,2024-05-13T07:44:00,0,0,13,32
466,2024-05-13T07:45:00,0,0,13,32
467,2024-05-13T07:46:00,0,0,13,32
468,2024-05-13T07:47:00,0,0,13,32
469,2024-05-13T07:48:00,0,0,13,32
470,2024-05-13T07:49:00,0,0,13,32
471,2024-05-13T07:50:00,0,0,13,32
472,2024-05-13T07:51:00,0,0,13,32
473,2024-05-13T07:52:00,0,0,13,32
474,2024-05-13T07:53:00,0,0,13,32
475,2024-05-13T07:54:00,0,0,13,32
476,2024-05-13T07:55:00,0,0,13,32
477,2024-05-13T07:56:00,0,0,13,32
478,2024-05-13T07:57:00,0,0,13,32
479,2024-05-13T07:58:00,0,0,13,32
480,2024-05-13T07:59:00,0,0,13,32
481,2024-05-13T08:00:00,0,0,13,32
482,2024-05-13T08:01:00,0,0,13,32
483,2024-05-13T08:02:00,0,0,13,32
484,2024-05-13T08:03:00,0,0,13,32
485,2024-05-13T08:04:00,0,0,13,32
486,2024-05-13T08:05:00,0,0,13,32
487,2024-05-13T08:06:00,0,0,13,32
488,2024-05-13T08:07:00,0,0,13,32
489,2024-05-13T08:08:00,0,0,13,32
490,2024-05-13T08:09:00,0,0,13,32
491,2024-05-13T08:10:00,0,0,13,32
492,2024-05-13T08:11:00,0,0,13,32
493,2024-05-13T08:12:00,0,0,13,32
494,2024-05-13T08:13:00,0,0,13,32
495,2024-05-13T08:14:00,0,0,13,32
496,2024-05-13T08:15:00,0,0,13,32
497,2024-05-13T08:16:00,0,0,13,32
498,2024-05-13T08:17:00,0,0,13,32
499,2024-05-13T08:18:00,0,0,13,32
500,2024-05-13T08:19:00,0,0,13,32
501,2024-05-13T08:20:00,0,0,13,32
502,2024-05-13T08:21:00,0,0,13,32
503,2024-05-13T08:22:00,0,0,13,32
504,2024-05-13T08:23:00,0,0,13,32
505,2024-05-13T08:24:00,0,0,13,32
506,2024-05-13T08:25:00,0,0,13,32
507,2024-05-13T08:26:00,0,0,13,32
508,2024-05-13T08:27:00,0,0,13,32
509,2024-05-13T08:28:00,0,0,13,32
510,2024-05-13T08:29:00,0,0,13,32
511,2024-05-13T08:30:00,0,0,13,32
512,2024-05-13T08:31:00,0,0,13,32
513,2024-05-13T08:32:00,0,0,13,32
514,2024-05-13T08:33:00,0,0,13,32
515,2024-05-13T08:34:00,0,0,13,32
516,2024-05-13T08:35:00,0,0,13,32
517,2024-05-13T08:36:00,0,0,13,32
518,2024-05-13T08:37:00,0,0,13,32
519,2024-05-13T08:38:00,0,0,13,32
520,2024-05-13T08:39:00,0,0,13,32
521,2024-05-13T08:40:00,0,0,13,32
522,2024-05-13T08:41:00,0,0,13,32
523,2024-05-13T08:42:00,0,0,13,32
524,2024-05-13T08:43:00,0,0,13,32
525,2024-05-13T08:44:00,0,0,13,32
526,2024-05-13T08:45:00,0,0,13,32
527,2024-05-13T08:46:00,0,0,13,32
528,2024-05-13T08:47:00,0,0,13,32
529,2024-05-13T08:48:00,0,0,13,32
530,2024-05-13T08:49:00,0,0,13,32
531,2024-05-13T08:50:00,0,0,13,32
532,2024-05-13T08:51:00,0,0,13,32
533,2024-05-13T08:52:00,0,0,13,32
534,2024-05-13T08:53:00,0,0,13,32
535,2024-05-13T08:54:00,0,0,13,32
536,2024-05-13T08:55:00,0,0,13,32
537,2024-05-13T08:56:00,0,0,13,32
538,2024-05-13T08:57:00,0,0,13,32
539,2024-05-13T08:58:00,0,0,13,32
540,2024-05-13T08:59:00,0,0,13,32
541,2024-05-13T09:00:00,0,0,13,32
542,2024-05-13T09:01:00,0,0,13,32
543,2024-05-13T09:02:00,0,0,13,32
544,2024-05-13T09:03:00,0,0,13,32
545,2024-05-13T09:04:00,0,0,13,32
546,2024-05-13T09:05:00,0,0,13,32
547,2024-05-13T09:06:00,0,0,13,32
548,2024-05-13T09:07:00,0,0,13,32
549,2024-05-13T09:08:00,0,0,13,32
550,2024-05-13T09:09:00,0,0,13,32
551,2024-05-13T09:10:00,0,0,13,32
552,2024-05-13T09:11:00,0,0,13,32
553,2024-05-13T09:12:00,0,0,13,32
554,2024-05-13T09:13:00,0,0,13,32
555,2024-05-13T09:14:00,0,0,13,32
556,2024-05-13T09:15:00,0,0,13,32
557,2024-05-13T09:16:00,0,0,13,32
558,2024-05-13T09:17:00,0,0,13,32
559,2024-05-13T09:18:00,0,0,13,32
560,2024-05-13T09:19:00,0,0,13,32
561,2024-05-13T09:20:00,0,0,13,32
562,2024-05-13T09:21:00,0,0,13,32
563,2024-05-13T09:22:00,0,0,13,32
564,2024-05-13T09:23:00,0,0,13,32
565,2024-05-13T09:24:00,0,0,13,32
566,2024-05-13T09:25:00,0,0,13,32
567,2024-05-13T09:26:00,0,0,13,32
568,2024-05-13T09:27:00,0,0,13,32
569,2024-05-13T09:28:00,0,0,13,32
570,2024-05-13T09:29:00,0,0,13,32
571,2024-05-13T09:30:00,0,0,13,32
572,2024-05-13T09:31:00,0,0,13,32
573,2024-05-13T09:32:00,0,0,13,32
574,2024-05-13T09:33:00,0,0,13,32
575,2024-05-13T09:34:00,0,0,13,32
576,2024-05-13T09:35:00,0,0,13,32
577,2024-05-13T09:36:00,0,0,13,32
578,2024-05-13T09:37:00,0,0,13,32
579,2024-05-13T09:38:00,0,0,13,32
580,2024-05-13T09:39:00,0,0,13,32
581,2024-05-13T09:40:00,0,0,13,32
582,2024-05-13T09:41:00,0,0,13,32
583,2024-05-13T09:42:00,0.5,0.5,13.5,32.5
584,2024-05-13T09:43:00,0.5,0.5,13.5,32.5
585,2024-05-13T09:44:00,0.5,0.5,13.5,32.5
586,2024-05-13T09:45:00,0.5,0.5,13.5,32.5
587,2024-05-13T09:46:00,0.5,0.5,13.5,32.5
588,2024-05-13T09:47:00,0.5,0.5,13.5,32.5
589,2024-05-13T09:48:00,0.5,0.5,13.5,32.5
590,2024-05-13T09:49:00,0.5,0.5,13.5,32.5
591,2024-05-13T09:50:00,0.5,0.5,13.5,32.5
592,2024-05-13T09:51:00,0.5,0.5,13.5,32.5
593,2024-05-13T09:52:00,0,0.5,13.5,32.5
594,2024-05-13T09:53:00,0,0.5,13.5,32.5
595,2024-05-13T09:54:00,0,0.5,13.5,32.5
596,2024-05-13T09:55:00,0,0.5,13.5,32.5
597,2024-05-13T09:56:00,0,0.5,13.5,32.5
598,2024-05-13T09:57:00,0,0.5,13.5,32.5
599,2024-05-13T09:58:00,0,0.5,13.5,32.5
600,2024-05-13T09:59:00,0,0.5,13.5,32.5
601,2024-05-13T10:00:00,0,0.5,13.5,32.5
602,2024-05-13T10:01:00,0,0.5,13.5,32.5
603,2024-05-13T10:02:00,0,0.5,13.5,32.5
604,2024-05-13T10:03:00,0,0.5,13.5,32.5
605,2024-05-13T10:04:00,0,0.5,13.5,32.5
606,2024-05-13T10:05:00,0,0.5,13.5,32.5
607,2024-05-13T10:06:00,0,0.5,13.5,32.5
608,2024-05-13T10:07:00,0,0.5,13.5,32.5
609,2024-05-13T10:08:00,0,0.5,13.5,32.5
610,2024-05-13T10:09:00,0,0.5,13.5,32.5
611,2024-05-13T10:10:00,0,0.5,13.5,32.5
612,2024-05-13T10:11:00,0,0.5,13.5,32.5
613,2024-05-13T10:12:00,0,0.5,13.5,32.5
614,2024-05-13T10:13:00,0,0.5,13.5,32.5
615,2024-05-13T10:14:00,0,0.5,13.5,32.5
616,2024-05-13T10:15:00,0,0.5,13.5,32.5
617,2024-05-13T10:16:00,0,0.5,13.5,32.5
618,2024-05-13T10:17:00,0,0.5,13.5,32.5
619,2024-05-13T10:18:00,0,0.5,13.5,32.5
620,2024-05-13T10:19:00,0,0.5,13.5,32.5
621,2024-05-13T10:20:00,0,0.5,13.5,32.5
622,2024-05-13T10:21:00,0,0.5,13.5,32.5
623,2024-05-13T10:22:00,0,0.5,13.5,32.5
624,2024-05-13T10:23:00,0,0.5,13.5,32.5
625,2024-05-13T10:24:00,0,0.5,13.5,32.5
626,2024-05-13T10:25:00,0,0.5,13.5,32.5
627,2024-05-13T10:26:00,0,0.5,13.5,32.5
628,2024-05-13T10:27:00,0,0.5,13.5,32.5
629,2024-05-13T10:28:00,0,0.5,13.5,32.5
630,2024-05-13T10:29:00,0,0.5,13.5,32.5
631,2024-05-13T10:30:00,0,0.5,13.5,32.5
632,2024-05-13T10:31:00,0,0.5,13.5,32.5
633,2024-05-13T10:32:00,0,0.5,13.5,32.5
634,2024-05-13T10:33:00,0,0.5,13.5,32.5
635,2024-05-13T10:34:00,0,0.5,13.5,32.5
636,2024-05-13T10:35:00,0,0.5,13.5,32.5
637,2024-05-13T10:36:00,0,0.5,13.5,32.5
638,2024-05-13T10:37:00,0,0.5,13.5,32.5
639,2024-05-13T10:38:00,0,0.5,13.5,32.5
640,2024-05-13T10:39:00,0,0.5,13.5,32.5
641,2024-05-13T10:40:00,0,0.5,13.5,32.5
642,2024-05-13T10:41:00,0,0.5,13.5,32.5
643,2024-05-13T10:42:00,0,0,13.5,32.5
644,2024-05-13T10:43:00,0,0,13.5,32.5
645,2024-05-13T10:44:00,0,0,13.5,32.5
646,2024-05-13T10:45:00,0,0,13.5,32.5
647,2024-05-13T10:46:00,0,0,13.5,32.5
648,2024-05-13T10:47:00,0,0,13.5,32.5
649,2024-05-13T10:48:00,0,0,13.5,32.5
650,2024-05-13T10:49:00,0,0,13.5,32.5
651,2024-05-13T10:50:00,0,0,13.5,32.5
652,2024-05-13T10:51:00,0,0,13.5,32.5
653,2024-05-13T10:52:00,0,0,13.5,32.5
654,2024-05-13T10:53:00,0,0,13.5,32.5
655,2024-05-13T10:54:00,0,0,13.5,32.5
656,2024-05-13T10:55:00,0,0,13.5,32.5
657,2024-05-13T10:56:00,0,0,13.5,32.5
658,2024-05-13T10:57:00,0,0,13.5,32.5
659,2024-05-13T10:58:00,0,0,13.5,32.5